Wind_Speed
12 15 15 14 14 13 11 10 8 7 6 4 3 2 3 4 5 6 7 7 7 8 8 8 9 9 10 10 10 11 12 12 13 13 13 13 13 14 14 15 16 17 18
10 13 14 15 15 13 12 10 9 8 6 4 3 2 2 3 4 6 6 7 7 8 8 9 9 10 10 10 11 11 12 12 13 13 13 13 14 14 15 15 16 17 18
9 11 13 13 15 14 12 9 9 7 6 4 3 2 1 2 4 4 5 6 6 7 8 8 9 10 11 11 12 12 13 13 14 14 14 15 15 15 15 16 17 17 18
7 9 9 11 12 12 11 10 10 8 6 5 4 3 2 2 3 3 4 5 6 7 7 8 9 11 12 12 13 13 13 14 14 15 16 16 16 17 17 17 18 18 19
6 7 7 8 9 10 10 11 10 8 6 5 5 3 2 2 3 3 4 5 5 6 8 9 10 11 12 13 14 14 15 15 16 16 17 18 18 19 19 20 20 20 21
5 6 6 7 9 9 9 10 9 8 7 6 5 4 3 3 3 4 4 5 6 7 8 9 11 12 13 14 15 16 16 17 17 18 18 19 19 20 21 22 22 23 23
3 4 6 6 8 8 9 9 8 8 7 6 5 5 4 4 4 5 5 6 7 8 9 10 11 13 14 15 16 18 19 19 19 19 19 20 20 20 21 22 23 24 26
2 3 5 6 6 7 8 8 8 8 8 7 7 6 6 6 6 6 7 7 8 9 11 12 13 14 16 17 18 20 21 22 22 21 21 21 21 21 22 23 24 25 26
2 4 5 6 7 8 8 9 9 9 9 8 8 8 7 7 7 8 9 9 10 11 13 14 15 17 18 19 21 22 23 24 24 24 23 23 23 23 23 24 24 26 27
6 6 7 7 8 9 10 10 10 10 10 10 10 9 9 9 10 10 11 12 13 14 15 17 18 19 20 21 22 23 25 25 25 25 24 24 24 25 25 25 25 26 27
9 9 9 9 10 11 11 11 11 12 12 12 11 11 11 11 12 12 13 14 15 16 18 19 20 21 22 23 24 25 26 26 26 26 27 27 27 27 26 26 27 27 27
11 11 11 11 12 12 12 12 13 13 14 13 13 13 13 14 14 15 16 17 18 19 20 21 21 23 24 25 26 27 28 28 28 28 28 28 29 29 28 29 29 29 29
13 13 13 13 13 13 13 13 14 15 15 15 15 15 16 16 16 17 18 19 20 21 22 23 24 25 26 27 28 29 30 30 30 30 30 30 30 31 31 31 31 31 31
15 15 14 14 14 14 15 15 15 16 17 17 17 18 18 19 19 20 21 22 23 24 25 26 26 27 28 29 30 30 31 31 32 32 32 32 32 32 33 33 33 33 32
16 16 16 16 16 16 16 16 17 18 18 19 19 20 21 21 22 23 24 25 26 26 27 28 28 29 30 31 32 33 33 33 34 34 34 34 34 34 34 34 34 34 34
18 18 18 18 17 18 18 18 18 19 20 20 21 21 22 23 24 25 26 27 28 28 29 30 31 32 33 33 34 34 35 35 36 36 36 35 35 35 35 35 35 35 35
20 20 20 20 19 19 19 20 20 20 21 22 22 24 25 26 27 28 28 29 30 31 32 32 33 34 35 36 36 36 37 37 37 37 37 37 37 36 36 35 36 36 36
21 21 22 22 21 21 21 20 21 22 23 24 25 26 27 28 29 30 31 32 33 33 34 35 36 36 38 38 38 39 39 39 39 39 38 39 39 38 37 36 36 37 37
23 24 25 25 24 24 23 23 24 24 24 25 26 28 29 30 31 32 33 34 35 36 37 38 39 39 40 40 41 41 40 40 41 41 41 40 40 40 39 37 37 37 38
25 26 27 27 26 26 26 26 26 26 27 28 29 31 32 32 33 35 36 37 38 39 40 41 41 42 42 43 43 44 43 43 42 43 43 42 41 41 40 39 39 38 38
25 26 27 27 27 27 26 26 27 28 30 32 33 33 34 35 36 38 39 41 42 43 43 43 44 45 45 45 46 46 46 46 45 45 44 44 44 43 42 41 40 39 38
24 25 26 27 27 27 27 28 29 30 32 33 34 36 37 38 40 41 42 44 45 46 46 46 47 48 48 48 49 49 49 49 48 46 46 46 46 45 43 42 41 40 39
23 25 26 27 27 28 29 31 32 34 35 36 37 39 40 41 42 44 45 46 48 48 49 50 51 51 50 51 51 52 52 51 50 49 48 47 47 47 45 43 42 41 40
23 24 26 26 27 28 30 32 34 36 37 38 39 41 42 43 45 46 48 49 49 51 53 54 54 54 53 53 54 55 54 54 54 53 51 50 49 48 46 45 44 43 42
24 25 26 26 28 30 32 33 35 37 38 40 41 43 44 46 47 49 51 52 54 55 56 56 57 57 57 56 57 57 57 57 56 56 55 53 51 49 47 46 45 44 43
26 26 28 29 31 32 34 36 37 39 41 42 44 45 47 48 50 52 53 55 56 57 58 59 60 60 60 59 60 60 59 59 59 58 56 54 53 51 49 47 46 44 43
Wind_Direction
209 204 203 199 194 187 191 186 188 198 201 202 218 254 288 312 324 329 330 332 335 335 334 333 331 329 327 325 323 319 315 311 308 305 301 294 289 285 279 275 269 266 262
197 195 194 192 191 190 187 182 189 191 186 185 204 241 284 312 322 327 332 341 343 342 342 343 343 340 337 333 329 325 320 317 313 309 306 302 296 290 285 279 274 269 267
176 179 185 189 189 188 188 189 189 183 180 180 190 215 262 310 324 331 339 346 348 350 353 354 353 350 346 343 339 335 328 321 317 313 309 305 301 296 290 285 279 274 269
163 174 178 184 188 188 191 193 183 182 184 188 198 213 247 302 320 330 341 351 357 360 1 358 355 352 350 349 346 340 335 329 323 317 312 307 302 298 293 288 283 279 274
164 174 184 188 190 186 186 185 184 185 192 199 207 215 244 284 305 325 342 354 360 1 360 358 355 352 350 348 346 342 337 331 325 320 314 309 304 299 295 290 285 280 277
165 174 182 184 189 187 188 189 191 193 203 211 216 228 249 272 296 317 332 344 348 348 348 348 348 348 347 345 343 341 338 332 327 321 315 310 305 301 297 292 287 282 278
174 182 183 183 185 192 195 196 195 202 211 220 230 241 255 269 288 302 312 322 329 330 331 333 336 338 339 339 339 338 335 332 328 323 318 313 309 304 299 295 290 286 281
182 197 200 196 196 201 202 201 206 214 221 229 239 248 258 268 279 290 299 307 313 317 319 322 325 328 329 330 331 330 329 327 326 323 319 315 312 307 303 299 294 290 286
233 222 219 212 209 208 210 214 219 224 229 237 245 252 259 268 275 283 292 299 304 308 312 316 319 321 322 322 323 323 323 322 323 322 319 316 314 310 307 303 299 295 291
253 240 231 226 224 224 223 224 228 231 236 243 249 255 261 269 277 284 290 295 300 303 306 311 314 316 316 317 318 319 320 320 319 319 318 316 314 312 309 306 302 299 295
262 254 247 241 238 237 234 233 235 237 241 246 252 258 266 273 279 285 289 293 296 299 302 306 309 311 313 314 315 317 319 319 318 317 316 315 314 312 311 309 306 303 299
262 258 252 246 243 242 240 240 240 242 245 250 255 262 269 274 279 284 288 291 294 298 301 304 306 308 311 313 314 316 316 316 316 316 315 314 313 312 311 309 308 306 302
263 260 256 252 248 247 246 246 246 248 251 255 260 265 270 274 279 284 287 290 293 297 300 301 304 306 309 311 312 313 314 314 314 314 313 312 312 311 311 309 309 307 304
263 263 259 254 253 251 251 252 252 253 256 259 264 268 272 276 280 283 286 289 292 295 299 300 302 304 307 309 310 310 311 312 312 312 311 310 310 310 309 308 308 307 304
264 263 258 255 255 255 255 256 257 258 261 264 268 272 275 278 281 284 287 289 292 295 297 299 301 303 305 306 308 308 309 309 310 310 309 308 308 308 308 308 307 306 304
262 262 258 255 256 258 258 259 261 263 265 268 270 274 277 279 282 284 287 289 292 294 295 297 299 302 304 305 306 306 307 307 307 308 308 307 307 307 307 307 306 305 304
263 260 258 257 257 258 260 261 263 266 268 271 273 276 279 281 283 285 288 289 291 292 294 296 297 300 302 303 304 304 305 305 305 306 306 306 306 305 305 305 305 304 303
261 260 259 257 258 262 264 265 267 269 271 274 276 278 280 282 284 286 287 288 290 292 293 295 296 298 300 301 302 303 304 304 303 303 303 303 304 304 304 303 303 303 303
260 259 259 259 258 261 263 265 267 270 272 275 277 279 281 283 285 286 287 288 289 291 293 294 296 298 299 299 300 301 302 302 302 302 302 302 302 303 303 302 302 302 301
259 257 258 258 259 261 262 266 270 274 275 276 277 280 282 283 285 287 287 288 289 291 292 294 295 296 297 297 298 299 299 300 300 301 300 300 301 301 301 301 301 300 300
259 259 258 259 261 265 267 270 273 276 277 278 279 280 283 284 286 287 288 288 289 291 292 292 293 295 296 296 296 297 297 298 298 299 298 298 298 299 299 299 299 299 299
262 261 260 262 264 265 269 272 274 275 277 279 280 281 283 285 286 287 288 288 289 290 291 291 293 294 294 294 294 295 295 296 296 297 296 296 296 297 297 298 297 297 297
267 267 266 265 265 268 271 274 275 278 280 281 282 283 284 285 286 287 287 288 289 288 289 290 292 293 293 292 292 293 293 294 294 294 294 294 294 295 295 295 296 295 295
274 273 271 271 274 275 276 277 278 279 281 282 283 284 284 285 286 287 287 288 288 288 289 290 291 292 291 291 291 291 291 291 292 292 292 292 292 292 292 292 293 292 292
279 278 278 279 280 280 281 281 281 282 283 284 285 285 285 286 287 287 287 288 288 289 289 289 289 289 289 289 289 289 289 289 289 289 290 290 289 289 289 289 290 289 289
284 284 283 283 284 284 284 284 284 285 285 286 286 287 287 287 287 287 288 288 288 288 289 289 288 288 288 287 287 287 286 286 286 286 286 286 285 284 285 286 286 286 285
Height
5840 5842 5845 5848 5851 5854 5857 5860 5862 5864 5865 5866 5866 5866 5867 5867 5867 5866 5866 5865 5865 5864 5863 5862 5861 5860 5859 5858 5856 5855 5854 5854 5853 5852 5852 5852 5851 5851 5851 5851 5852 5852 5853
5838 5840 5843 5846 5849 5852 5856 5858 5861 5862 5863 5864 5865 5865 5865 5866 5866 5865 5865 5864 5864 5863 5862 5861 5860 5859 5857 5856 5855 5854 5853 5852 5851 5850 5849 5849 5849 5848 5848 5848 5848 5848 5848
5838 5840 5843 5845 5848 5851 5854 5857 5860 5861 5862 5863 5864 5864 5864 5865 5865 5865 5864 5863 5863 5862 5861 5860 5859 5857 5856 5855 5853 5852 5851 5849 5848 5847 5847 5846 5845 5844 5844 5844 5843 5844 5844
5840 5841 5843 5845 5847 5850 5853 5856 5858 5860 5861 5862 5863 5863 5864 5864 5864 5864 5863 5863 5862 5861 5860 5859 5858 5856 5855 5853 5852 5850 5849 5847 5846 5844 5843 5842 5841 5841 5840 5840 5839 5839 5839
5842 5843 5844 5846 5847 5849 5852 5854 5856 5858 5860 5861 5861 5862 5862 5863 5863 5862 5862 5861 5861 5860 5859 5858 5856 5855 5853 5852 5850 5848 5847 5845 5843 5841 5840 5838 5837 5836 5835 5835 5834 5834 5834
5844 5844 5845 5846 5847 5849 5852 5853 5854 5856 5858 5859 5860 5861 5861 5861 5861 5861 5860 5860 5859 5858 5857 5856 5855 5853 5852 5850 5848 5846 5844 5842 5840 5838 5836 5835 5833 5832 5830 5829 5828 5828 5828
5845 5845 5846 5846 5848 5849 5851 5852 5854 5855 5857 5858 5858 5859 5859 5859 5859 5859 5859 5858 5857 5856 5856 5854 5853 5851 5849 5847 5845 5843 5841 5839 5837 5835 5833 5830 5828 5827 5825 5823 5822 5821 5820
5845 5846 5846 5847 5848 5849 5850 5851 5852 5854 5855 5856 5857 5857 5857 5857 5857 5857 5857 5856 5855 5854 5853 5851 5850 5848 5846 5844 5842 5840 5838 5835 5833 5830 5828 5826 5823 5821 5819 5818 5816 5814 5813
5846 5846 5846 5847 5847 5848 5849 5850 5851 5852 5853 5854 5854 5855 5855 5855 5855 5855 5854 5853 5852 5851 5850 5848 5846 5845 5843 5841 5838 5836 5834 5831 5828 5826 5823 5820 5818 5816 5814 5811 5809 5808 5805
5845 5845 5846 5846 5846 5847 5847 5848 5849 5850 5851 5851 5852 5852 5852 5852 5852 5851 5851 5850 5849 5847 5846 5844 5843 5841 5839 5836 5834 5831 5829 5826 5823 5820 5817 5815 5812 5809 5807 5805 5803 5800 5798
5844 5844 5844 5844 5844 5845 5845 5845 5846 5847 5848 5848 5849 5849 5849 5848 5848 5847 5847 5846 5845 5843 5842 5840 5838 5836 5834 5831 5829 5826 5823 5821 5818 5815 5812 5809 5806 5803 5800 5798 5795 5793 5791
5842 5842 5842 5842 5842 5842 5842 5843 5843 5844 5844 5845 5845 5845 5845 5844 5844 5843 5842 5841 5840 5839 5837 5835 5833 5831 5829 5826 5823 5821 5818 5815 5811 5808 5805 5802 5799 5796 5793 5790 5787 5784 5782
5840 5839 5839 5839 5839 5839 5839 5840 5840 5840 5840 5841 5841 5840 5840 5839 5839 5838 5837 5836 5835 5833 5831 5829 5827 5825 5823 5820 5817 5814 5811 5808 5805 5802 5798 5795 5792 5788 5785 5782 5778 5775 5773
5837 5837 5836 5836 5836 5836 5836 5836 5836 5836 5836 5836 5836 5835 5835 5834 5833 5832 5831 5830 5828 5827 5825 5823 5821 5818 5816 5814 5811 5808 5804 5801 5798 5794 5791 5787 5784 5780 5777 5773 5770 5766 5763
5833 5833 5833 5832 5832 5832 5832 5832 5832 5832 5831 5831 5830 5830 5829 5828 5827 5826 5824 5823 5821 5819 5818 5816 5813 5811 5809 5806 5803 5800 5797 5794 5790 5786 5783 5779 5776 5772 5768 5765 5761 5757 5754
5829 5829 5828 5828 5828 5827 5827 5827 5827 5826 5826 5825 5824 5824 5823 5821 5820 5819 5817 5815 5814 5812 5810 5808 5806 5803 5801 5798 5795 5792 5789 5785 5782 5778 5774 5771 5767 5763 5759 5756 5752 5748 5744
5824 5823 5823 5823 5823 5822 5822 5821 5821 5820 5820 5819 5818 5817 5816 5814 5813 5811 5809 5807 5806 5804 5802 5800 5797 5795 5792 5789 5786 5783 5780 5776 5773 5769 5765 5762 5758 5754 5750 5746 5742 5738 5734
5817 5817 5816 5816 5816 5816 5815 5815 5814 5813 5812 5812 5811 5809 5808 5806 5804 5803 5801 5799 5797 5795 5793 5791 5788 5786 5783 5780 5777 5774 5770 5767 5763 5760 5756 5752 5748 5744 5740 5737 5732 5728 5724
5810 5810 5810 5809 5809 5809 5808 5808 5807 5806 5805 5804 5803 5801 5799 5798 5796 5794 5792 5790 5788 5787 5784 5782 5779 5776 5773 5769 5766 5763 5760 5756 5753 5749 5745 5742 5738 5734 5730 5726 5722 5718 5713
5802 5802 5802 5801 5801 5801 5801 5800 5799 5798 5797 5796 5794 5793 5791 5789 5787 5785 5783 5781 5779 5777 5774 5771 5768 5765 5762 5759 5755 5752 5749 5746 5742 5738 5734 5730 5727 5723 5719 5715 5711 5707 5703
5794 5794 5794 5794 5793 5793 5793 5792 5791 5790 5789 5787 5786 5784 5782 5780 5778 5776 5774 5771 5769 5766 5764 5761 5758 5754 5751 5747 5743 5740 5736 5733 5730 5726 5722 5718 5714 5711 5707 5703 5700 5696 5692
5787 5786 5786 5786 5786 5785 5785 5784 5783 5782 5780 5778 5776 5774 5772 5770 5768 5766 5763 5760 5757 5754 5751 5748 5745 5742 5738 5734 5731 5727 5723 5720 5717 5714 5710 5705 5701 5698 5695 5691 5688 5684 5681
5780 5779 5779 5778 5777 5777 5776 5775 5774 5773 5771 5769 5767 5764 5762 5760 5757 5754 5751 5748 5744 5741 5738 5735 5732 5729 5725 5721 5717 5713 5709 5705 5702 5699 5696 5692 5688 5685 5682 5678 5675 5672 5669
5773 5772 5771 5770 5769 5769 5768 5766 5765 5763 5761 5759 5756 5754 5751 5748 5745 5742 5738 5735 5732 5728 5724 5721 5717 5714 5710 5706 5702 5698 5694 5690 5687 5684 5681 5678 5674 5671 5668 5665 5662 5659 5656
5766 5764 5763 5762 5761 5760 5758 5756 5754 5752 5750 5747 5744 5742 5739 5735 5732 5729 5725 5721 5717 5713 5709 5705 5701 5698 5695 5691 5686 5681 5678 5674 5671 5667 5665 5662 5659 5656 5654 5651 5648 5645 5643
5758 5756 5755 5753 5752 5750 5748 5746 5743 5741 5738 5735 5732 5729 5726 5722 5718 5715 5711 5706 5702 5697 5692 5688 5684 5680 5676 5673 5669 5664 5660 5657 5653 5650 5648 5646 5643 5641 5638 5636 5634 5632 5630